Wind_Speed
20 20 21 20 19 19 17 16 16 15 15 14 12 12 13 14 15 15 15 16 17 18 19 21 23 23 24 24 24 25 26 27 32 34 33 34 32 31 30 26 27 28 30
17 18 17 15 13 13 11 10 10 9 9 9 11 13 13 14 15 16 16 17 19 21 22 23 24 25 26 27 27 28 29 28 32 36 35 35 34 35 31 31 31 34 32
17 17 14 13 11 9 7 6 6 7 10 11 12 13 15 14 15 17 19 20 20 21 22 24 25 26 27 28 28 28 28 28 30 33 34 34 35 34 33 32 33 35 29
15 13 13 11 9 6 5 6 8 9 10 11 12 13 13 16 19 21 19 22 22 24 25 27 29 31 32 31 29 26 26 28 28 30 35 38 39 40 42 39 37 30 30
10 9 8 6 5 5 7 8 9 9 10 12 13 15 17 16 16 17 20 20 24 27 30 28 26 29 26 23 25 28 31 34 35 37 35 31 30 29 30 27 23 22 22
7 4 3 4 5 6 6 7 9 10 12 13 13 14 15 17 21 23 20 22 23 25 25 28 32 34 27 25 21 22 24 27 28 31 23 25 26 24 22 24 23 23 27
3 2 3 4 6 7 8 10 11 12 13 13 13 15 19 23 24 21 19 21 24 26 28 31 30 27 24 26 26 24 23 24 25 25 25 28 29 28 29 29 29 27 28
2 3 4 6 7 9 11 13 14 14 15 17 19 21 23 24 24 21 18 20 24 25 24 25 30 28 26 24 22 26 28 26 23 23 26 26 25 25 26 30 31 31 32
4 4 5 8 11 13 14 14 14 17 18 19 20 21 22 21 19 18 17 22 25 27 30 26 26 24 21 22 24 27 27 28 24 23 24 23 24 24 23 25 25 23 26
5 7 10 12 11 11 12 14 17 17 18 18 18 20 18 19 22 21 18 21 29 28 27 24 22 22 22 22 25 28 29 28 29 28 26 25 24 23 24 22 22 20 18
8 11 9 8 10 11 14 17 17 17 17 20 19 19 21 22 23 24 21 23 24 27 25 26 25 23 23 24 24 24 21 21 24 20 23 28 27 26 24 25 27 30 31
8 6 5 8 10 14 17 18 20 16 19 19 22 24 24 25 25 21 19 20 19 22 24 25 26 24 24 24 24 25 26 26 29 29 29 29 23 18 18 17 21 23 26
3 4 6 10 13 15 18 18 18 17 19 22 23 25 27 26 21 20 19 18 18 22 24 25 25 25 22 26 30 24 20 24 24 22 20 20 19 19 19 19 18 18 20
6 8 10 12 16 18 16 13 16 19 21 22 24 27 26 24 22 22 22 23 23 24 24 24 27 22 29 27 23 19 17 16 18 20 22 22 19 18 18 17 19 18 21
8 11 14 15 15 13 12 16 18 18 17 21 26 21 23 26 26 23 24 23 24 24 26 27 27 28 29 24 20 18 17 18 18 19 19 19 19 19 17 16 18 18 20
10 12 11 12 12 14 16 18 18 19 22 20 16 16 20 22 21 22 22 21 22 23 24 27 26 22 21 20 19 19 19 19 18 19 19 19 20 18 18 17 17 17 19
9 9 11 13 16 16 17 20 23 24 23 16 17 18 18 20 21 21 21 21 23 21 24 22 23 23 22 21 20 21 20 20 19 20 20 19 17 16 16 17 18 19 20
7 8 14 15 15 14 15 20 25 24 27 26 24 20 17 18 19 20 21 21 22 18 20 23 24 25 23 23 22 21 21 21 20 21 18 16 16 16 17 18 19 20 21
10 12 13 15 15 15 16 19 22 24 22 25 25 23 20 21 22 22 20 20 22 23 23 22 24 24 23 23 22 21 21 21 20 21 19 18 18 17 19 20 21 20 20
11 11 12 15 14 16 18 22 24 21 22 22 24 25 23 26 27 26 23 23 25 25 26 26 26 25 25 24 23 22 22 20 22 20 18 16 16 17 19 20 20 20 20
11 11 12 13 15 18 21 26 20 20 21 22 24 24 21 23 25 26 26 26 26 27 27 26 26 26 26 25 25 24 22 22 21 20 19 17 16 18 19 19 19 20 22
10 11 13 14 17 21 25 20 20 20 21 23 26 25 24 25 27 28 28 28 28 27 26 27 27 27 25 24 23 22 22 22 21 19 18 16 16 18 18 19 20 20 22
10 11 13 16 20 21 18 20 21 22 23 25 27 27 29 29 29 29 29 30 29 29 29 29 30 29 26 23 21 20 20 20 19 18 16 16 17 18 17 19 18 20 22
10 12 14 17 20 17 19 22 23 25 25 26 27 28 30 30 31 32 32 32 31 30 30 28 27 27 22 18 16 16 17 16 16 15 14 15 17 16 16 17 17 18 21
10 12 15 18 19 20 23 27 27 26 27 27 28 31 33 33 34 33 33 32 30 29 28 27 27 24 20 15 12 11 12 12 13 11 11 14 13 11 13 16 17 20 25
11 13 14 16 19 21 23 26 26 27 30 30 32 34 35 36 36 35 32 29 27 27 26 24 23 21 17 11 7 4 4 3 3 6 7 5 6 9 13 18 22 24 26
Wind_Direction
170 175 183 185 194 201 206 212 217 222 232 241 245 254 263 271 276 279 279 278 279 281 282 281 281 283 285 285 285 284 282 283 285 290 292 296 296 295 296 290 286 282 282
166 169 179 189 198 202 203 212 226 240 255 267 275 279 284 286 284 283 285 288 287 286 284 283 284 285 284 285 286 285 286 287 287 288 290 292 292 292 292 291 283 286 294
167 172 171 174 183 193 206 227 257 268 274 280 286 289 292 292 293 294 294 294 294 290 289 290 292 290 287 285 283 282 282 283 284 283 285 285 287 289 290 285 285 289 288
167 171 175 177 188 200 230 252 263 268 268 269 272 276 280 282 284 289 297 302 298 295 293 290 287 285 284 287 290 291 290 283 275 279 284 283 281 281 284 286 283 287 282
175 173 172 184 212 235 252 260 267 273 277 278 277 276 279 285 291 294 294 292 291 293 296 293 296 299 296 290 287 287 284 286 284 283 286 286 285 288 291 295 290 291 287
176 175 202 247 262 274 279 283 287 286 289 292 293 287 284 280 282 288 292 291 294 296 294 295 298 299 296 294 289 285 286 290 292 288 293 302 299 290 287 294 284 277 284
202 250 283 283 293 301 305 302 298 297 296 291 283 277 280 284 290 295 297 294 292 291 296 299 302 306 305 299 292 288 283 279 280 285 287 289 290 288 291 286 282 275 269
246 293 308 301 301 300 301 297 294 290 289 288 287 288 290 293 296 300 302 295 290 295 300 301 300 297 298 301 300 298 296 297 290 286 285 291 291 287 285 284 277 276 279
212 234 265 283 289 294 295 296 300 301 300 299 300 302 303 303 307 307 300 288 291 292 300 299 303 298 299 299 294 292 297 296 297 291 284 282 283 285 282 285 287 280 278
245 266 281 287 291 301 305 304 305 310 312 310 306 307 307 302 299 300 303 306 302 301 303 302 302 300 298 297 298 300 298 299 297 295 298 284 278 289 292 283 277 273 266
284 297 301 300 298 298 301 306 308 308 307 309 304 299 299 298 295 293 301 302 301 305 303 303 307 305 303 297 296 298 311 312 304 295 290 296 298 295 288 277 272 274 275
315 335 316 295 293 298 307 304 303 304 305 306 304 302 302 300 298 299 308 307 303 301 302 300 302 308 302 303 300 299 299 298 291 294 296 297 299 299 299 295 279 269 265
314 309 293 297 299 302 309 311 310 312 310 309 311 313 318 323 325 319 315 312 306 304 300 300 298 298 291 301 303 304 295 286 291 293 298 298 295 300 297 295 294 285 285
274 275 282 290 298 307 314 315 315 315 315 314 316 317 318 320 321 320 320 317 315 312 310 309 306 294 307 305 300 297 296 298 301 295 296 301 296 299 300 291 295 284 279
291 289 294 302 309 312 316 317 316 311 311 314 313 316 317 316 318 316 310 308 310 312 310 302 303 304 306 306 304 303 300 303 299 303 295 295 296 295 294 292 295 289 280
316 321 322 326 328 321 318 317 316 314 314 320 324 315 310 310 313 314 311 308 306 307 303 304 309 313 313 313 311 307 305 302 301 301 294 295 294 288 290 287 289 290 284
319 329 327 330 327 324 321 324 326 323 324 331 331 323 317 313 315 315 314 310 307 305 304 308 314 317 311 309 307 308 307 303 301 303 297 293 288 287 282 281 284 287 287
349 334 333 334 336 332 328 327 323 332 334 333 335 333 327 323 324 323 321 312 308 310 310 310 312 315 309 303 302 300 299 299 298 304 298 291 287 283 276 275 278 284 286
345 337 331 336 340 338 332 329 332 332 332 333 340 345 349 345 336 334 333 328 327 324 322 314 309 312 310 306 303 301 297 294 295 299 293 283 281 276 272 273 276 274 277
345 341 340 340 343 342 339 328 330 337 340 343 347 344 344 340 331 330 333 334 331 325 322 317 311 309 309 307 304 300 301 297 291 292 292 284 279 275 273 274 276 276 276
349 350 351 350 345 340 333 330 340 345 347 346 346 348 336 330 331 337 339 336 332 328 323 317 311 309 305 304 302 298 295 297 290 287 286 280 275 273 274 274 275 272 275
357 357 357 351 346 340 338 357 3 355 352 350 350 350 351 347 346 341 338 336 333 329 327 323 318 313 308 304 301 297 292 292 289 282 282 274 270 272 275 275 275 271 281
4 4 0 358 350 350 8 12 5 1 354 353 353 353 354 351 347 344 341 339 337 335 335 332 327 321 315 308 300 292 286 283 281 278 276 268 266 271 275 277 275 281 288
11 6 6 2 359 5 7 6 2 2 359 355 354 354 353 352 350 348 346 344 342 343 343 340 335 331 321 305 291 282 275 273 271 271 266 260 266 269 272 276 282 294 303
11 11 9 5 4 3 6 4 5 3 3 1 359 357 356 354 353 351 349 347 347 348 346 342 344 340 332 318 297 279 272 266 262 261 255 261 264 265 273 284 303 306 307
13 13 11 7 4 5 5 360 2 357 358 4 2 0 359 356 355 353 352 352 355 352 351 349 350 351 349 351 346 322 293 272 254 247 250 259 281 296 308 311 311 309 301
Height
1503 1507 1509 1512 1515 1517 1520 1521 1522 1525 1526 1527 1528 1528 1528 1527 1526 1525 1525 1525 1524 1523 1523 1522 1521 1520 1519 1518 1517 1515 1513 1512 1506 1503 1503 1502 1501 1500 1500 1499 1498 1498 1497
1504 1507 1509 1512 1514 1517 1517 1519 1521 1522 1523 1524 1524 1524 1523 1523 1522 1521 1521 1520 1519 1518 1518 1517 1516 1515 1513 1512 1509 1508 1506 1504 1502 1496 1496 1494 1494 1493 1492 1491 1491 1490 1488
1506 1508 1510 1512 1513 1515 1517 1519 1520 1521 1521 1521 1521 1520 1519 1518 1518 1517 1516 1515 1514 1513 1512 1510 1509 1508 1506 1504 1502 1499 1498 1496 1495 1491 1488 1488 1486 1485 1484 1483 1482 1480 1480
1507 1509 1511 1512 1514 1515 1517 1518 1519 1519 1519 1519 1518 1517 1516 1516 1515 1514 1512 1510 1509 1507 1506 1504 1503 1501 1499 1496 1494 1492 1490 1488 1487 1484 1482 1480 1479 1478 1476 1473 1471 1471 1470
1508 1509 1511 1513 1514 1515 1516 1516 1516 1516 1516 1515 1515 1514 1513 1512 1511 1509 1508 1505 1503 1501 1499 1496 1495 1493 1491 1490 1488 1485 1483 1481 1479 1476 1473 1472 1469 1468 1467 1467 1465 1463 1462
1509 1511 1512 1513 1514 1514 1513 1513 1513 1512 1512 1511 1510 1509 1508 1507 1506 1504 1503 1500 1498 1496 1493 1490 1487 1484 1482 1481 1480 1479 1477 1473 1471 1469 1465 1465 1464 1462 1461 1461 1459 1459 1456
1510 1511 1512 1512 1511 1511 1511 1510 1509 1509 1508 1507 1506 1505 1504 1502 1500 1498 1496 1494 1492 1489 1487 1483 1479 1477 1476 1473 1471 1470 1468 1466 1465 1463 1460 1459 1457 1457 1456 1454 1452 1451 1449
1510 1510 1510 1510 1510 1509 1509 1508 1507 1506 1504 1503 1502 1500 1498 1496 1494 1492 1490 1488 1485 1483 1481 1478 1474 1471 1468 1466 1464 1462 1460 1457 1456 1455 1454 1451 1450 1449 1448 1445 1442 1442 1442
1510 1510 1509 1509 1508 1507 1506 1505 1503 1502 1500 1498 1496 1494 1492 1490 1488 1486 1485 1481 1478 1476 1474 1471 1468 1464 1462 1460 1459 1455 1452 1450 1449 1447 1446 1445 1443 1442 1441 1439 1437 1435 1434
1510 1509 1509 1508 1506 1505 1504 1502 1500 1498 1496 1494 1491 1490 1487 1484 1482 1481 1479 1475 1471 1468 1466 1463 1461 1458 1456 1455 1452 1449 1445 1443 1440 1438 1437 1435 1434 1433 1433 1432 1430 1428 1428
1509 1508 1506 1505 1504 1502 1501 1499 1496 1494 1492 1489 1487 1484 1482 1480 1476 1474 1472 1470 1465 1462 1459 1456 1453 1452 1449 1447 1445 1441 1438 1436 1432 1430 1428 1427 1425 1424 1422 1422 1421 1421 1419
1506 1505 1504 1503 1502 1500 1497 1495 1493 1489 1487 1484 1481 1478 1476 1473 1470 1467 1465 1463 1460 1456 1453 1450 1447 1445 1443 1440 1438 1434 1432 1430 1425 1423 1421 1419 1417 1416 1414 1413 1412 1411 1411
1504 1503 1502 1500 1498 1496 1494 1491 1488 1485 1482 1479 1476 1472 1468 1465 1463 1461 1458 1456 1454 1451 1448 1444 1442 1438 1435 1432 1429 1426 1424 1420 1418 1416 1414 1412 1411 1409 1408 1406 1405 1404 1403
1501 1500 1498 1497 1494 1492 1489 1487 1485 1481 1477 1474 1471 1467 1463 1460 1458 1456 1453 1450 1447 1444 1441 1437 1434 1430 1428 1425 1421 1419 1416 1414 1412 1409 1407 1405 1404 1403 1402 1401 1399 1398 1397
1498 1497 1495 1493 1491 1487 1485 1483 1481 1478 1475 1471 1467 1464 1460 1456 1453 1451 1448 1445 1442 1439 1435 1430 1426 1423 1419 1416 1413 1411 1410 1408 1405 1403 1401 1399 1398 1397 1396 1395 1394 1393 1391
1495 1493 1491 1489 1487 1484 1481 1479 1478 1474 1471 1467 1463 1460 1457 1453 1449 1446 1442 1439 1436 1433 1429 1424 1420 1416 1413 1410 1408 1405 1403 1401 1400 1397 1395 1393 1391 1391 1390 1390 1389 1388 1386
1492 1490 1488 1486 1483 1481 1477 1474 1471 1468 1465 1461 1459 1455 1452 1448 1444 1440 1437 1433 1429 1426 1422 1418 1414 1411 1408 1405 1402 1399 1397 1395 1393 1391 1388 1386 1385 1385 1385 1384 1384 1383 1381
1490 1489 1487 1484 1480 1477 1474 1472 1468 1463 1458 1455 1452 1449 1445 1442 1438 1435 1431 1426 1421 1419 1415 1411 1408 1405 1402 1399 1396 1393 1390 1388 1386 1384 1382 1381 1380 1380 1379 1379 1378 1377 1376
1488 1487 1484 1481 1478 1475 1472 1469 1465 1460 1456 1451 1446 1443 1440 1437 1433 1430 1426 1421 1416 1412 1408 1405 1402 1398 1395 1392 1389 1386 1384 1381 1380 1378 1376 1375 1374 1374 1373 1373 1372 1372 1371
1487 1485 1482 1480 1477 1473 1470 1466 1461 1457 1453 1449 1445 1441 1436 1432 1428 1424 1420 1415 1411 1406 1402 1398 1394 1391 1387 1385 1382 1379 1377 1375 1373 1371 1370 1369 1368 1368 1367 1366 1366 1365 1364
1485 1483 1481 1478 1475 1471 1467 1463 1458 1455 1451 1447 1443 1438 1435 1431 1425 1419 1414 1409 1405 1400 1395 1391 1387 1383 1379 1376 1374 1372 1370 1368 1366 1365 1363 1363 1362 1362 1361 1360 1360 1359 1357
1484 1482 1479 1476 1473 1470 1465 1460 1456 1453 1449 1445 1440 1435 1431 1426 1420 1415 1409 1404 1399 1394 1389 1384 1379 1374 1371 1368 1366 1364 1362 1360 1359 1358 1357 1357 1357 1356 1355 1355 1354 1353 1351
1483 1481 1478 1475 1472 1468 1464 1460 1456 1452 1447 1442 1437 1431 1426 1421 1416 1410 1404 1398 1392 1386 1381 1375 1370 1364 1361 1358 1356 1355 1353 1353 1352 1352 1351 1351 1351 1351 1350 1349 1348 1347 1345
1482 1479 1477 1474 1471 1467 1463 1459 1455 1450 1445 1439 1434 1429 1423 1418 1411 1405 1399 1392 1386 1380 1374 1369 1363 1357 1352 1349 1347 1346 1346 1346 1346 1346 1346 1346 1346 1346 1345 1344 1343 1341 1339
1481 1479 1477 1473 1470 1466 1461 1457 1452 1448 1443 1438 1432 1427 1420 1414 1407 1400 1394 1387 1381 1376 1370 1364 1358 1351 1346 1342 1340 1340 1340 1340 1340 1341 1342 1342 1342 1341 1341 1339 1339 1336 1333
1481 1479 1476 1473 1469 1465 1461 1457 1452 1447 1442 1436 1430 1424 1417 1410 1404 1396 1390 1384 1378 1373 1367 1361 1355 1349 1344 1341 1338 1337 1337 1338 1338 1339 1339 1339 1339 1339 1338 1336 1333 1330 1326